Year,Month,Day,Hour,Minute,Value (Times are PST for temperature in C)
2009,05,24,00,00,11.70
2009,05,24,00,01,11.70
2009,05,24,00,02,11.60
2009,05,24,00,03,11.60
2009,05,24,00,04,11.60
2009,05,24,00,05,11.50
2009,05,24,00,06,11.50
2009,05,24,00,07,11.50
2009,05,24,00,08,11.40
2009,05,24,00,09,11.50
2009,05,24,00,10,11.50
2009,05,24,00,11,11.50
2009,05,24,00,12,11.60
2009,05,24,00,13,11.60
2009,05,24,00,14,11.60
2009,05,24,00,15,11.60
2009,05,24,00,16,11.60
2009,05,24,00,17,11.60
2009,05,24,00,18,11.50
2009,05,24,00,19,11.50
2009,05,24,00,20,11.40
2009,05,24,00,21,11.40
2009,05,24,00,22,11.30
2009,05,24,00,23,11.30
2009,05,24,00,24,11.30
2009,05,24,00,25,11.30
2009,05,24,00,26,11.20
2009,05,24,00,27,11.20
2009,05,24,00,28,11.20
2009,05,24,00,29,11.20
2009,05,24,00,30,11.20
2009,05,24,00,31,11.20
2009,05,24,00,32,11.20
2009,05,24,00,33,11.20
2009,05,24,00,34,11.20
2009,05,24,00,35,11.20
2009,05,24,00,36,11.10
2009,05,24,00,37,11.10
2009,05,24,00,38,11.10
2009,05,24,00,39,11.10
2009,05,24,00,40,11.10
2009,05,24,00,41,11.00
2009,05,24,00,42,11.00
2009,05,24,00,43,11.00
2009,05,24,00,44,11.00
2009,05,24,00,45,10.90
2009,05,24,00,46,10.90
2009,05,24,00,47,10.90
2009,05,24,00,48,10.90
2009,05,24,00,49,10.90
2009,05,24,00,50,10.90
2009,05,24,00,51,10.90
2009,05,24,00,52,10.90
2009,05,24,00,53,10.90
2009,05,24,00,54,10.90
2009,05,24,00,55,10.90
2009,05,24,00,56,10.90
2009,05,24,00,57,10.90
2009,05,24,00,58,10.80
2009,05,24,00,59,10.80
2009,05,24,01,00,10.80
2009,05,24,01,01,10.80
2009,05,24,01,02,10.80
2009,05,24,01,03,10.80
2009,05,24,01,04,10.70
2009,05,24,01,05,10.70
2009,05,24,01,06,10.70
2009,05,24,01,07,10.70
2009,05,24,01,08,10.70
2009,05,24,01,09,10.70
2009,05,24,01,10,10.70
2009,05,24,01,11,10.70
2009,05,24,01,12,10.70
2009,05,24,01,13,10.70
2009,05,24,01,14,10.70
2009,05,24,01,15,10.70
2009,05,24,01,16,10.70
2009,05,24,01,17,10.70
2009,05,24,01,18,10.70
2009,05,24,01,19,10.70
2009,05,24,01,20,10.70
2009,05,24,01,21,10.70
2009,05,24,01,22,10.70
2009,05,24,01,23,10.70
2009,05,24,01,24,10.60
2009,05,24,01,25,10.60
2009,05,24,01,26,10.60
2009,05,24,01,27,10.50
2009,05,24,01,28,10.50
2009,05,24,01,29,10.40
2009,05,24,01,30,10.40
2009,05,24,01,31,10.40
2009,05,24,01,32,10.30
2009,05,24,01,33,10.30
2009,05,24,01,34,10.30
2009,05,24,01,35,10.20
2009,05,24,01,36,10.20
2009,05,24,01,37,10.20
2009,05,24,01,38,10.10
2009,05,24,01,39,10.10
2009,05,24,01,40,10.10
2009,05,24,01,41,10.10
2009,05,24,01,42,10.10
2009,05,24,01,43,10.00
2009,05,24,01,44,10.00
2009,05,24,01,45,10.00
2009,05,24,01,46,9.90
2009,05,24,01,47,9.90
2009,05,24,01,48,9.90
2009,05,24,01,49,9.90
2009,05,24,01,50,9.80
2009,05,24,01,51,9.80
2009,05,24,01,52,9.80
2009,05,24,01,53,9.70
2009,05,24,01,54,9.70
2009,05,24,01,55,9.70
2009,05,24,01,56,9.70
2009,05,24,01,57,9.60
2009,05,24,01,58,9.60
2009,05,24,01,59,9.60
2009,05,24,02,00,9.50
2009,05,24,02,01,9.50
2009,05,24,02,02,9.50
2009,05,24,02,03,9.40
2009,05,24,02,04,9.40
2009,05,24,02,05,9.40
2009,05,24,02,06,9.40
2009,05,24,02,07,9.30
2009,05,24,02,08,9.30
2009,05,24,02,09,9.30
2009,05,24,02,10,9.30
2009,05,24,02,11,9.20
2009,05,24,02,12,9.20
2009,05,24,02,13,9.20
2009,05,24,02,14,9.20
2009,05,24,02,15,9.20
2009,05,24,02,16,9.10
2009,05,24,02,17,9.10
2009,05,24,02,18,9.10
2009,05,24,02,19,9.10
2009,05,24,02,20,9.00
2009,05,24,02,21,9.00
2009,05,24,02,22,9.00
2009,05,24,02,23,9.00
2009,05,24,02,24,8.90
2009,05,24,02,25,8.90
2009,05,24,02,26,8.90
2009,05,24,02,27,8.90
2009,05,24,02,28,8.90
2009,05,24,02,29,8.90
2009,05,24,02,30,8.90
2009,05,24,02,31,8.90
2009,05,24,02,32,8.90
2009,05,24,02,33,8.90
2009,05,24,02,34,8.90
2009,05,24,02,35,8.90
2009,05,24,02,36,8.90
2009,05,24,02,37,8.90
2009,05,24,02,38,8.90
2009,05,24,02,39,8.90
2009,05,24,02,40,8.80
2009,05,24,02,41,8.80
2009,05,24,02,42,8.80
2009,05,24,02,43,8.80
2009,05,24,02,44,8.80
2009,05,24,02,45,8.70
2009,05,24,02,46,8.70
2009,05,24,02,47,8.70
2009,05,24,02,48,8.70
2009,05,24,02,49,8.70
2009,05,24,02,50,8.80
2009,05,24,02,51,8.80
2009,05,24,02,52,8.80
2009,05,24,02,53,8.80
2009,05,24,02,54,8.80
2009,05,24,02,55,8.90
2009,05,24,02,56,8.90
2009,05,24,02,57,8.90
2009,05,24,02,58,8.90
2009,05,24,02,59,8.90
2009,05,24,03,00,8.90
2009,05,24,03,01,8.90
2009,05,24,03,02,8.80
2009,05,24,03,03,8.80
2009,05,24,03,04,8.80
2009,05,24,03,05,8.80
2009,05,24,03,06,8.80
2009,05,24,03,07,8.80
2009,05,24,03,08,8.80
2009,05,24,03,09,8.80
2009,05,24,03,10,8.80
2009,05,24,03,11,8.80
2009,05,24,03,12,8.80
2009,05,24,03,13,8.70
2009,05,24,03,14,8.70
2009,05,24,03,15,8.70
2009,05,24,03,16,8.70
2009,05,24,03,17,8.70
2009,05,24,03,18,8.70
2009,05,24,03,19,8.70
2009,05,24,03,20,8.70
2009,05,24,03,21,8.70
2009,05,24,03,22,8.70
2009,05,24,03,23,8.70
2009,05,24,03,24,8.70
2009,05,24,03,25,8.70
2009,05,24,03,26,8.70
2009,05,24,03,27,8.70
2009,05,24,03,28,8.70
2009,05,24,03,29,8.70
2009,05,24,03,30,8.70
2009,05,24,03,31,8.70
2009,05,24,03,32,8.60
2009,05,24,03,33,8.60
2009,05,24,03,34,8.60
2009,05,24,03,35,8.60
2009,05,24,03,36,8.60
2009,05,24,03,37,8.60
2009,05,24,03,38,8.50
2009,05,24,03,39,8.50
2009,05,24,03,40,8.40
2009,05,24,03,41,8.40
2009,05,24,03,42,8.40
2009,05,24,03,43,8.40
2009,05,24,03,44,8.40
2009,05,24,03,45,8.40
2009,05,24,03,46,8.40
2009,05,24,03,47,8.40
2009,05,24,03,48,8.40
2009,05,24,03,49,8.40
2009,05,24,03,50,8.40
2009,05,24,03,51,8.30
2009,05,24,03,52,8.30
2009,05,24,03,53,8.30
2009,05,24,03,54,8.30
2009,05,24,03,55,8.30
2009,05,24,03,56,8.30
2009,05,24,03,57,8.30
2009,05,24,03,58,8.20
2009,05,24,03,59,8.20
2009,05,24,04,00,8.20
2009,05,24,04,01,8.20
2009,05,24,04,02,8.10
2009,05,24,04,03,8.10
2009,05,24,04,04,8.10
2009,05,24,04,05,8.00
2009,05,24,04,06,8.00
2009,05,24,04,07,8.00
2009,05,24,04,08,8.00
2009,05,24,04,09,8.00
2009,05,24,04,10,8.00
2009,05,24,04,11,8.00
2009,05,24,04,12,8.00
2009,05,24,04,13,8.00
2009,05,24,04,14,8.00
2009,05,24,04,15,8.10
2009,05,24,04,16,8.10
2009,05,24,04,17,8.10
2009,05,24,04,18,8.10
2009,05,24,04,19,8.10
2009,05,24,04,20,8.10
2009,05,24,04,21,8.10
2009,05,24,04,22,8.10
2009,05,24,04,23,8.10
2009,05,24,04,24,8.10
2009,05,24,04,25,8.10
2009,05,24,04,26,8.00
2009,05,24,04,27,8.00
2009,05,24,04,28,8.00
2009,05,24,04,29,8.00
2009,05,24,04,30,8.00
2009,05,24,04,31,8.00
2009,05,24,04,32,8.00
2009,05,24,04,33,8.00
2009,05,24,04,34,8.00
2009,05,24,04,35,7.90
2009,05,24,04,36,7.90
2009,05,24,04,37,7.90
2009,05,24,04,38,7.90
2009,05,24,04,39,7.80
2009,05,24,04,40,7.80
2009,05,24,04,41,7.80
2009,05,24,04,42,7.80
2009,05,24,04,43,7.80
2009,05,24,04,44,7.80
2009,05,24,04,45,7.80
2009,05,24,04,46,7.80
2009,05,24,04,47,7.80
2009,05,24,04,48,7.80
2009,05,24,04,49,7.70
2009,05,24,04,50,7.70
2009,05,24,04,51,7.70
2009,05,24,04,52,7.70
2009,05,24,04,53,7.70
2009,05,24,04,54,7.70
2009,05,24,04,55,7.70
2009,05,24,04,56,7.60
2009,05,24,04,57,7.60
2009,05,24,04,58,7.60
2009,05,24,04,59,7.60
2009,05,24,05,00,7.60
2009,05,24,05,01,7.60
2009,05,24,05,02,7.60
2009,05,24,05,03,7.60
2009,05,24,05,04,7.60
2009,05,24,05,05,7.60
2009,05,24,05,06,7.60
2009,05,24,05,07,7.60
2009,05,24,05,08,7.60
2009,05,24,05,09,7.60
2009,05,24,05,10,7.50
2009,05,24,05,11,7.50
2009,05,24,05,12,7.50
2009,05,24,05,13,7.50
2009,05,24,05,14,7.50
2009,05,24,05,15,7.50
2009,05,24,05,16,7.50
2009,05,24,05,17,7.40
2009,05,24,05,18,7.40
2009,05,24,05,19,7.40
2009,05,24,05,20,7.40
2009,05,24,05,21,7.40
2009,05,24,05,22,7.40
2009,05,24,05,23,7.40
2009,05,24,05,24,7.40
2009,05,24,05,25,7.40
2009,05,24,05,26,7.30
2009,05,24,05,27,7.40
2009,05,24,05,28,7.40
2009,05,24,05,29,7.30
2009,05,24,05,30,7.40
2009,05,24,05,31,7.40
2009,05,24,05,32,7.40
2009,05,24,05,33,7.40
2009,05,24,05,34,7.40
2009,05,24,05,35,7.40
2009,05,24,05,36,7.40
2009,05,24,05,37,7.40
2009,05,24,05,38,7.40
2009,05,24,05,39,7.40
2009,05,24,05,40,7.40
2009,05,24,05,41,7.40
2009,05,24,05,42,7.30
2009,05,24,05,43,7.30
2009,05,24,05,44,7.30
2009,05,24,05,45,7.40
2009,05,24,05,46,7.40
2009,05,24,05,47,7.40
2009,05,24,05,48,7.40
2009,05,24,05,49,7.40
2009,05,24,05,50,7.40
2009,05,24,05,51,7.40
2009,05,24,05,52,7.40
2009,05,24,05,53,7.40
2009,05,24,05,54,7.40
2009,05,24,05,55,7.40
2009,05,24,05,56,7.40
2009,05,24,05,57,7.40
2009,05,24,05,58,7.40
2009,05,24,05,59,7.40
2009,05,24,06,00,7.40
2009,05,24,06,01,7.40
2009,05,24,06,02,7.40
2009,05,24,06,03,7.40
2009,05,24,06,04,7.40
2009,05,24,06,05,7.50
2009,05,24,06,06,7.50
2009,05,24,06,07,7.50
2009,05,24,06,08,7.50
2009,05,24,06,09,7.50
2009,05,24,06,10,7.50
2009,05,24,06,11,7.50
2009,05,24,06,12,7.60
2009,05,24,06,13,7.60
2009,05,24,06,14,7.60
2009,05,24,06,15,7.70
2009,05,24,06,16,7.70
2009,05,24,06,17,7.70
2009,05,24,06,18,7.70
2009,05,24,06,19,7.70
2009,05,24,06,20,7.80
2009,05,24,06,21,7.80
2009,05,24,06,22,7.80
2009,05,24,06,23,7.80
2009,05,24,06,24,7.80
2009,05,24,06,25,7.80
2009,05,24,06,26,7.80
2009,05,24,06,27,7.80
2009,05,24,06,28,7.90
2009,05,24,06,29,7.90
2009,05,24,06,30,7.90
2009,05,24,06,31,7.90
2009,05,24,06,32,7.90
2009,05,24,06,33,7.90
2009,05,24,06,34,7.90
2009,05,24,06,35,7.90
2009,05,24,06,36,7.90
2009,05,24,06,37,8.20
2009,05,24,06,38,8.20
2009,05,24,06,39,8.30
2009,05,24,06,40,8.30
2009,05,24,06,41,8.30
2009,05,24,06,42,8.40
2009,05,24,06,43,8.40
2009,05,24,06,44,8.50
2009,05,24,06,45,8.60
2009,05,24,06,46,8.60
2009,05,24,06,47,8.70
2009,05,24,06,48,8.80
2009,05,24,06,49,8.90
2009,05,24,06,50,8.90
2009,05,24,06,51,9.00
2009,05,24,06,52,9.00
2009,05,24,06,53,9.10
2009,05,24,06,54,9.10
2009,05,24,06,55,9.20
2009,05,24,06,56,9.20
2009,05,24,06,57,9.30
2009,05,24,06,58,9.30
2009,05,24,06,59,9.40
2009,05,24,07,00,9.50
2009,05,24,07,01,9.60
2009,05,24,07,02,9.60
2009,05,24,07,03,9.50
2009,05,24,07,04,9.50
2009,05,24,07,05,9.50
2009,05,24,07,06,9.50
2009,05,24,07,07,9.50
2009,05,24,07,08,9.50
2009,05,24,07,09,9.60
2009,05,24,07,10,9.60
2009,05,24,07,11,9.60
2009,05,24,07,12,9.60
2009,05,24,07,13,9.60
2009,05,24,07,14,9.60
2009,05,24,07,15,9.70
2009,05,24,07,16,9.80
2009,05,24,07,17,9.80
2009,05,24,07,18,9.90
2009,05,24,07,19,9.90
2009,05,24,07,20,10.00
2009,05,24,07,21,10.00
2009,05,24,07,22,10.10
2009,05,24,07,23,10.10
2009,05,24,07,24,10.20
2009,05,24,07,25,10.20
2009,05,24,07,26,10.20
2009,05,24,07,27,10.30
2009,05,24,07,28,10.30
2009,05,24,07,29,10.30
2009,05,24,07,30,10.40
2009,05,24,07,31,10.40
2009,05,24,07,32,10.50
2009,05,24,07,33,10.60
2009,05,24,07,34,10.70
2009,05,24,07,35,10.80
2009,05,24,07,36,10.90
2009,05,24,07,37,10.90
2009,05,24,07,38,11.00
2009,05,24,07,39,11.10
2009,05,24,07,40,11.10
2009,05,24,07,41,11.10
2009,05,24,07,42,11.20
2009,05,24,07,43,11.20
2009,05,24,07,44,11.20
2009,05,24,07,45,11.30
2009,05,24,07,46,11.30
2009,05,24,07,47,11.40
2009,05,24,07,48,11.50
2009,05,24,07,49,11.60
2009,05,24,07,50,11.70
2009,05,24,07,51,11.70
2009,05,24,07,52,11.80
2009,05,24,07,53,12.00
2009,05,24,07,54,12.10
2009,05,24,07,55,12.20
2009,05,24,07,56,12.20
2009,05,24,07,57,12.20
2009,05,24,07,58,12.20
2009,05,24,07,59,12.20
2009,05,24,08,00,12.20
2009,05,24,08,01,12.20
2009,05,24,08,02,12.20
2009,05,24,08,03,12.20
2009,05,24,08,04,12.30
2009,05,24,08,05,12.30
2009,05,24,08,06,12.30
2009,05,24,08,07,12.40
2009,05,24,08,08,12.40
2009,05,24,08,09,12.50
2009,05,24,08,10,12.50
2009,05,24,08,11,12.60
2009,05,24,08,12,12.60
2009,05,24,08,13,12.60
2009,05,24,08,14,12.70
2009,05,24,08,15,12.70
2009,05,24,08,16,12.70
2009,05,24,08,17,12.70
2009,05,24,08,18,12.70
2009,05,24,08,19,12.70
2009,05,24,08,20,12.70
2009,05,24,08,21,12.70
2009,05,24,08,22,12.70
2009,05,24,08,23,12.70
2009,05,24,08,24,12.70
2009,05,24,08,25,12.80
2009,05,24,08,26,12.80
2009,05,24,08,27,12.90
2009,05,24,08,28,12.90
2009,05,24,08,29,13.00
2009,05,24,08,30,13.10
2009,05,24,08,31,13.10
2009,05,24,08,32,13.20
2009,05,24,08,33,13.30
2009,05,24,08,34,13.40
2009,05,24,08,35,13.50
2009,05,24,08,36,13.50
2009,05,24,08,37,13.60
2009,05,24,08,38,13.70
2009,05,24,08,39,13.80
2009,05,24,08,40,13.90
2009,05,24,08,41,13.90
2009,05,24,08,42,14.00
2009,05,24,08,43,14.10
2009,05,24,08,44,14.10
2009,05,24,08,45,14.10
2009,05,24,08,46,14.20
2009,05,24,08,47,14.20
2009,05,24,08,48,14.30
2009,05,24,08,49,14.30
2009,05,24,08,50,14.40
2009,05,24,08,51,14.50
2009,05,24,08,52,14.60
2009,05,24,08,53,14.60
2009,05,24,08,54,14.80
2009,05,24,08,55,14.90
2009,05,24,08,56,15.00
2009,05,24,08,57,15.00
2009,05,24,08,58,15.00
2009,05,24,08,59,15.00
2009,05,24,09,00,15.00
2009,05,24,09,01,15.00
2009,05,24,09,02,15.00
2009,05,24,09,03,15.00
2009,05,24,09,04,15.00
2009,05,24,09,05,15.00
2009,05,24,09,06,15.00
2009,05,24,09,07,15.10
2009,05,24,09,08,15.10
2009,05,24,09,09,15.20
2009,05,24,09,10,15.20
2009,05,24,09,11,15.30
2009,05,24,09,12,15.30
2009,05,24,09,13,15.40
2009,05,24,09,14,15.50
2009,05,24,09,15,15.60
2009,05,24,09,16,15.70
2009,05,24,09,17,15.70
2009,05,24,09,18,15.80
2009,05,24,09,19,15.80
2009,05,24,09,20,15.90
2009,05,24,09,21,15.90
2009,05,24,09,22,16.00
2009,05,24,09,23,16.00
2009,05,24,09,24,16.10
2009,05,24,09,25,16.10
2009,05,24,09,26,16.10
2009,05,24,09,27,16.20
2009,05,24,09,28,16.20
2009,05,24,09,29,16.30
2009,05,24,09,30,16.40
2009,05,24,09,31,16.40
2009,05,24,09,32,16.40
2009,05,24,09,33,16.30
2009,05,24,09,34,16.30
2009,05,24,09,35,16.30
2009,05,24,09,36,16.20
2009,05,24,09,37,16.10
2009,05,24,09,38,16.10
2009,05,24,09,39,16.10
2009,05,24,09,40,16.10
2009,05,24,09,41,16.10
2009,05,24,09,42,16.20
2009,05,24,09,43,16.20
2009,05,24,09,44,16.20
2009,05,24,09,45,16.30
2009,05,24,09,46,16.30
2009,05,24,09,47,16.40
2009,05,24,09,48,16.50
2009,05,24,09,49,16.50
2009,05,24,09,50,16.50
2009,05,24,09,51,16.50
2009,05,24,09,52,16.50
2009,05,24,09,53,16.50
2009,05,24,09,54,16.60
2009,05,24,09,55,16.70
2009,05,24,09,56,16.80
2009,05,24,09,57,16.80
2009,05,24,09,58,16.80
2009,05,24,09,59,16.80
2009,05,24,10,00,16.80
2009,05,24,10,01,16.90
2009,05,24,10,02,17.00
2009,05,24,10,03,17.10
2009,05,24,10,04,17.20
2009,05,24,10,05,17.20
2009,05,24,10,06,17.10
2009,05,24,10,07,17.00
2009,05,24,10,08,16.90
2009,05,24,10,09,16.90
2009,05,24,10,10,16.80
2009,05,24,10,11,16.80
2009,05,24,10,12,16.70
2009,05,24,10,13,16.70
2009,05,24,10,14,16.70
2009,05,24,10,15,16.80
2009,05,24,10,16,16.90
2009,05,24,10,17,17.10
2009,05,24,10,18,17.20
2009,05,24,10,19,17.20
2009,05,24,10,20,17.20
2009,05,24,10,21,17.30
2009,05,24,10,22,17.40
2009,05,24,10,23,17.50
2009,05,24,10,24,17.50
2009,05,24,10,25,17.60
2009,05,24,10,26,17.60
2009,05,24,10,27,17.60
2009,05,24,10,28,17.70
2009,05,24,10,29,17.80
2009,05,24,10,30,17.80
2009,05,24,10,31,17.70
2009,05,24,10,32,17.50
2009,05,24,10,33,17.40
2009,05,24,10,34,17.30
2009,05,24,10,35,17.30
2009,05,24,10,36,17.30
2009,05,24,10,37,17.40
2009,05,24,10,38,17.40
2009,05,24,10,39,17.50
2009,05,24,10,40,17.60
2009,05,24,10,41,17.60
2009,05,24,10,42,17.50
2009,05,24,10,43,17.40
2009,05,24,10,44,17.40
2009,05,24,10,45,17.30
2009,05,24,10,46,17.30
2009,05,24,10,47,17.30
2009,05,24,10,48,17.40
2009,05,24,10,49,17.60
2009,05,24,10,50,17.70
2009,05,24,10,51,17.70
2009,05,24,10,52,17.70
2009,05,24,10,53,17.70
2009,05,24,10,54,17.60
2009,05,24,10,55,17.50
2009,05,24,10,56,17.50
2009,05,24,10,57,17.40
2009,05,24,10,58,17.50
2009,05,24,10,59,17.60
2009,05,24,11,00,17.60
2009,05,24,11,01,17.60
2009,05,24,11,02,17.60
2009,05,24,11,03,17.70
2009,05,24,11,04,17.80
2009,05,24,11,05,17.90
2009,05,24,11,06,18.10
2009,05,24,11,07,18.20
2009,05,24,11,08,18.40
2009,05,24,11,09,18.50
2009,05,24,11,10,18.50
2009,05,24,11,11,18.50
2009,05,24,11,12,18.60
2009,05,24,11,13,18.50
2009,05,24,11,14,18.40
2009,05,24,11,15,18.20
2009,05,24,11,16,18.20
2009,05,24,11,17,18.10
2009,05,24,11,18,18.10
2009,05,24,11,19,18.10
2009,05,24,11,20,18.10
2009,05,24,11,21,18.10
2009,05,24,11,22,18.10
2009,05,24,11,23,18.10
2009,05,24,11,24,18.20
2009,05,24,11,25,18.30
2009,05,24,11,26,18.40
2009,05,24,11,27,18.40
2009,05,24,11,28,18.30
2009,05,24,11,29,18.30
2009,05,24,11,30,18.30
2009,05,24,11,31,18.30
2009,05,24,11,32,18.40
2009,05,24,11,33,18.50
2009,05,24,11,34,18.60
2009,05,24,11,35,18.60
2009,05,24,11,36,18.70
2009,05,24,11,37,18.80
2009,05,24,11,38,18.80
2009,05,24,11,39,18.80
2009,05,24,11,40,18.70
2009,05,24,11,41,18.70
2009,05,24,11,42,18.80
2009,05,24,11,43,18.80
2009,05,24,11,44,18.90
2009,05,24,11,45,18.90
2009,05,24,11,46,18.90
2009,05,24,11,47,18.80
2009,05,24,11,48,18.80
2009,05,24,11,49,18.80
2009,05,24,11,50,18.80
2009,05,24,11,51,18.80
2009,05,24,11,52,18.80
2009,05,24,11,53,18.80
2009,05,24,11,54,18.70
2009,05,24,11,55,18.70
2009,05,24,11,56,18.80
2009,05,24,11,57,18.90
2009,05,24,11,58,18.90
2009,05,24,11,59,18.90
2009,05,24,12,00,18.90
2009,05,24,12,01,18.90
2009,05,24,12,02,18.90
2009,05,24,12,03,18.90
2009,05,24,12,04,19.00
2009,05,24,12,05,19.00
2009,05,24,12,06,18.90
2009,05,24,12,07,18.90
2009,05,24,12,08,18.90
2009,05,24,12,09,18.90
2009,05,24,12,10,18.90
2009,05,24,12,11,18.90
2009,05,24,12,12,18.80
2009,05,24,12,13,18.90
2009,05,24,12,14,19.10
2009,05,24,12,15,19.20
2009,05,24,12,16,19.40
2009,05,24,12,17,19.50
2009,05,24,12,18,19.50
2009,05,24,12,19,19.40
2009,05,24,12,20,19.40
2009,05,24,12,21,19.50
2009,05,24,12,22,19.60
2009,05,24,12,23,19.70
2009,05,24,12,24,19.70
2009,05,24,12,25,19.70
2009,05,24,12,26,19.60
2009,05,24,12,27,19.40
2009,05,24,12,28,19.40
2009,05,24,12,29,19.40
2009,05,24,12,30,19.40
2009,05,24,12,31,19.60
2009,05,24,12,32,19.70
2009,05,24,12,33,19.70
2009,05,24,12,34,19.60
2009,05,24,12,35,19.60
2009,05,24,12,36,19.60
2009,05,24,12,37,19.70
2009,05,24,12,38,19.60
2009,05,24,12,39,19.50
2009,05,24,12,40,19.50
2009,05,24,12,41,19.50
2009,05,24,12,42,19.50
2009,05,24,12,43,19.50
2009,05,24,12,44,19.50
2009,05,24,12,45,19.40
2009,05,24,12,46,19.40
2009,05,24,12,47,19.40
2009,05,24,12,48,19.40
2009,05,24,12,49,19.60
2009,05,24,12,50,19.50
2009,05,24,12,51,19.50
2009,05,24,12,52,19.40
2009,05,24,12,53,19.40
2009,05,24,12,54,19.50
2009,05,24,12,55,19.50
2009,05,24,12,56,19.40
2009,05,24,12,57,19.40
2009,05,24,12,58,19.30
2009,05,24,12,59,19.30
2009,05,24,13,00,19.10
2009,05,24,13,01,19.00
2009,05,24,13,02,19.00
2009,05,24,13,03,19.00
2009,05,24,13,04,18.90
2009,05,24,13,05,18.90
2009,05,24,13,06,18.90
2009,05,24,13,07,18.90
2009,05,24,13,08,18.90
2009,05,24,13,09,18.90
2009,05,24,13,10,19.00
2009,05,24,13,11,19.10
2009,05,24,13,12,19.20
2009,05,24,13,13,19.20
2009,05,24,13,14,19.20
2009,05,24,13,15,19.20
2009,05,24,13,16,19.30
2009,05,24,13,17,19.30
2009,05,24,13,18,19.20
2009,05,24,13,19,19.20
2009,05,24,13,20,19.20
2009,05,24,13,21,19.10
2009,05,24,13,22,19.10
2009,05,24,13,23,19.00
2009,05,24,13,24,19.00
2009,05,24,13,25,18.90
2009,05,24,13,26,18.80
2009,05,24,13,27,18.80
2009,05,24,13,28,18.90
2009,05,24,13,29,19.00
2009,05,24,13,30,19.20
2009,05,24,13,31,19.40
2009,05,24,13,32,19.50
2009,05,24,13,33,19.40
2009,05,24,13,34,19.40
2009,05,24,13,35,19.20
2009,05,24,13,36,19.10
2009,05,24,13,37,19.10
2009,05,24,13,38,19.00
2009,05,24,13,39,19.00
2009,05,24,13,40,18.90
2009,05,24,13,41,18.90
2009,05,24,13,42,19.00
2009,05,24,13,43,19.10
2009,05,24,13,44,19.00
2009,05,24,13,45,19.00
2009,05,24,13,46,19.10
2009,05,24,13,47,19.10
2009,05,24,13,48,19.10
2009,05,24,13,49,19.10
2009,05,24,13,50,19.00
2009,05,24,13,51,19.10
2009,05,24,13,52,19.10
2009,05,24,13,53,19.00
2009,05,24,13,54,19.00
2009,05,24,13,55,19.20
2009,05,24,13,56,19.30
2009,05,24,13,57,19.30
2009,05,24,13,58,19.20
2009,05,24,13,59,19.30
2009,05,24,14,00,19.40
2009,05,24,14,01,19.30
2009,05,24,14,02,19.30
2009,05,24,14,03,19.30
2009,05,24,14,04,19.30
2009,05,24,14,05,19.20
2009,05,24,14,06,19.20
2009,05,24,14,07,19.10
2009,05,24,14,08,19.10
2009,05,24,14,09,19.30
2009,05,24,14,10,19.50
2009,05,24,14,11,19.50
2009,05,24,14,12,19.50
2009,05,24,14,13,19.60
2009,05,24,14,14,19.50
2009,05,24,14,15,19.30
2009,05,24,14,16,19.40
2009,05,24,14,17,19.30
2009,05,24,14,18,19.30
2009,05,24,14,19,19.30
2009,05,24,14,20,19.50
2009,05,24,14,21,19.60
2009,05,24,14,22,19.70
2009,05,24,14,23,19.90
2009,05,24,14,24,19.80
2009,05,24,14,25,19.90
2009,05,24,14,26,19.80
2009,05,24,14,27,19.70
2009,05,24,14,28,19.80
2009,05,24,14,29,19.90
2009,05,24,14,30,20.00
2009,05,24,14,31,19.90
2009,05,24,14,32,19.80
2009,05,24,14,33,19.80
2009,05,24,14,34,19.80
2009,05,24,14,35,19.90
2009,05,24,14,36,19.90
2009,05,24,14,37,19.90
2009,05,24,14,38,19.80
2009,05,24,14,39,19.90
2009,05,24,14,40,20.00
2009,05,24,14,41,20.00
2009,05,24,14,42,20.00
2009,05,24,14,43,20.00
2009,05,24,14,44,20.00
2009,05,24,14,45,19.90
2009,05,24,14,46,19.80
2009,05,24,14,47,19.80
2009,05,24,14,48,19.90
2009,05,24,14,49,19.90
2009,05,24,14,50,19.90
2009,05,24,14,51,19.80
2009,05,24,14,52,19.60
2009,05,24,14,53,19.60
2009,05,24,14,54,19.60
2009,05,24,14,55,19.70
2009,05,24,14,56,19.60
2009,05,24,14,57,19.70
2009,05,24,14,58,19.70
2009,05,24,14,59,19.70
2009,05,24,15,00,19.80
2009,05,24,15,01,19.80
2009,05,24,15,02,19.80
2009,05,24,15,03,19.80
2009,05,24,15,04,19.80
2009,05,24,15,05,20.00
2009,05,24,15,06,20.20
2009,05,24,15,07,20.30
2009,05,24,15,08,20.30
2009,05,24,15,09,20.30
2009,05,24,15,10,20.50
2009,05,24,15,11,20.50
2009,05,24,15,12,20.40
2009,05,24,15,13,20.30
2009,05,24,15,14,20.20
2009,05,24,15,15,20.10
2009,05,24,15,16,20.00
2009,05,24,15,17,19.90
2009,05,24,15,18,19.90
2009,05,24,15,19,19.90
2009,05,24,15,20,19.80
2009,05,24,15,21,19.80
2009,05,24,15,22,19.80
2009,05,24,15,23,19.80
2009,05,24,15,24,19.80
2009,05,24,15,25,19.90
2009,05,24,15,26,19.90
2009,05,24,15,27,20.10
2009,05,24,15,28,20.20
2009,05,24,15,29,20.30
2009,05,24,15,30,20.30
2009,05,24,15,31,20.20
2009,05,24,15,32,20.10
2009,05,24,15,33,20.00
2009,05,24,15,34,20.00
2009,05,24,15,35,20.10
2009,05,24,15,36,20.10
2009,05,24,15,37,20.10
2009,05,24,15,38,20.10
2009,05,24,15,39,20.10
2009,05,24,15,40,20.10
2009,05,24,15,41,20.10
2009,05,24,15,42,20.10
2009,05,24,15,43,20.10
2009,05,24,15,44,20.10
2009,05,24,15,45,20.10
2009,05,24,15,46,20.10
2009,05,24,15,47,20.00
2009,05,24,15,48,20.00
2009,05,24,15,49,20.20
2009,05,24,15,50,20.30
2009,05,24,15,51,20.50
2009,05,24,15,52,20.70
2009,05,24,15,53,20.80
2009,05,24,15,54,20.80
2009,05,24,15,55,20.80
2009,05,24,15,56,20.80
2009,05,24,15,57,20.80
2009,05,24,15,58,20.80
2009,05,24,15,59,20.80
2009,05,24,16,00,20.70
2009,05,24,16,01,20.60
2009,05,24,16,02,20.70
2009,05,24,16,03,20.80
2009,05,24,16,04,20.80
2009,05,24,16,05,20.80
2009,05,24,16,06,20.70
2009,05,24,16,07,20.70
2009,05,24,16,08,20.70
2009,05,24,16,09,20.80
2009,05,24,16,10,20.90
2009,05,24,16,11,20.90
2009,05,24,16,12,21.00
2009,05,24,16,13,21.00
2009,05,24,16,14,21.00
2009,05,24,16,15,21.00
2009,05,24,16,16,21.10
2009,05,24,16,17,21.00
2009,05,24,16,18,21.00
2009,05,24,16,19,21.00
2009,05,24,16,20,21.10
2009,05,24,16,21,21.20
2009,05,24,16,22,21.20
2009,05,24,16,23,20.90
2009,05,24,16,24,20.80
2009,05,24,16,25,20.60
2009,05,24,16,26,20.50
2009,05,24,16,27,20.40
2009,05,24,16,28,20.40
2009,05,24,16,29,20.30
2009,05,24,16,30,20.30
2009,05,24,16,31,20.20
2009,05,24,16,32,20.20
2009,05,24,16,33,20.20
2009,05,24,16,34,20.30
2009,05,24,16,35,20.30
2009,05,24,16,36,20.40
2009,05,24,16,37,20.40
2009,05,24,16,38,20.30
2009,05,24,16,39,20.40
2009,05,24,16,40,20.40
2009,05,24,16,41,20.40
2009,05,24,16,42,20.40
2009,05,24,16,43,20.40
2009,05,24,16,44,20.40
2009,05,24,16,45,20.40
2009,05,24,16,46,20.50
2009,05,24,16,47,20.60
2009,05,24,16,48,20.50
2009,05,24,16,49,20.40
2009,05,24,16,50,20.40
2009,05,24,16,51,20.40
2009,05,24,16,52,20.40
2009,05,24,16,53,20.50
2009,05,24,16,54,20.60
2009,05,24,16,55,20.60
2009,05,24,16,56,20.60
2009,05,24,16,57,20.70
2009,05,24,16,58,20.80
2009,05,24,16,59,20.80
2009,05,24,17,00,20.70
2009,05,24,17,01,20.60
2009,05,24,17,02,20.60
2009,05,24,17,03,20.60
2009,05,24,17,04,20.60
2009,05,24,17,05,20.60
2009,05,24,17,06,20.70
2009,05,24,17,07,20.80
2009,05,24,17,08,20.80
2009,05,24,17,09,20.90
2009,05,24,17,10,20.80
2009,05,24,17,11,20.80
2009,05,24,17,12,20.80
2009,05,24,17,13,20.70
2009,05,24,17,14,20.70
2009,05,24,17,15,20.60
2009,05,24,17,16,20.60
2009,05,24,17,17,20.60
2009,05,24,17,18,20.60
2009,05,24,17,19,20.60
2009,05,24,17,20,20.50
2009,05,24,17,21,20.50
2009,05,24,17,22,20.60
2009,05,24,17,23,20.80
2009,05,24,17,24,20.80
2009,05,24,17,25,20.80
2009,05,24,17,26,20.80
2009,05,24,17,27,20.80
2009,05,24,17,28,20.90
2009,05,24,17,29,20.90
2009,05,24,17,30,20.90
2009,05,24,17,31,20.90
2009,05,24,17,32,21.00
2009,05,24,17,33,21.10